WESTFORD NEEDLES, 629

Orbit data source: Space-Track

WESTFORD NEEDLES, 629 is space debris in LEO originally from a launch on Thu, 09 May 1963 UTC via an ATLAS AGENA B launch vehicle from the Air Force Western Test Range (AFWTR). Debris objects in space refer to the collection of defunct objects orbiting the Earth. Examples of debris include non-operational satellites, rocket bodies, and fragments generated from explosions, collisions, or faulty payload assembly.

Loading next visibility...
Identifier
629, 1963-014G
Orbit
LEO
Country
Flag of USUS
Related business
Manufacturer
MIT-LL
Mission
Spacecraft
Bus & Motor
Unknown
Mass
8 kg wet, 8 kg dry
Launch date (UTC)
1963-05-09 (62 years ago)
Launch vehicle
ATLAS AGENA B
Launch site
Air Force Western Test Range (AFWTR)
Object type
Payload
Rocket body
Debris
Shape & HBR
Unknown shape, 1.1 m
Radar Cross Section
Large (>1 m²)

Expand to show TLE details & history
Last TLE update: 16 hours ago

TLE from 16 hours ago
0 WESTFORD NEEDLES
1 00629U 63014G   25294.74116995 -.00000042  00000-0 -21016-1 0  9994
2 00629  87.3462 213.9428 0056839 245.8936 113.5966  8.65565566973569
Epoch: 2025-10-21T17:47Z
TLE epoch observation values (Epoch: 2025-10-21T17:47:17.083Z)
Latitude
-0.00002°
Longitude
-83.30316°
Altitude
3,667.14 km
Speed
6.293 km/s
True Right ascension
14h 15m 46s
True Declination
0° 00' 00"
Sunlit
Object was in daylight at epoch
Visualization orbit readout
Latitude
Unknown
Longitude
Unknown
Altitude
Unknown
Speed
Unknown
Apparent Right ascension
Unknown
Apparent Declination
Unknown
Sunlit
N/A
Visualization observer readout
Local Sidereal Time
04:41:06
Azimuth
Unknown
Elevation
Unknown
Doppler factor
Unknown
Orbital elements
Apogee altitude
3,696.645 km
Perigee altitude
3,582.764 km
Semi-major axis
10,017.841 km
Eccentricity
0.00568
Inclination
87.3462°
RAAN
213.9428°
Arg. of periapsis
245.8936°
True anomaly
114.19176°
Mean anomaly
113.5966°
Eccentric anomaly
113.89435°
Mean motion
2.16462 °/min
Orbital period
166.31 mins
BSTAR
-0.021016

Documentation

Showing up to 5 results
|